Regional Weather Roundup
Issued by NWS

Home | Current Version | Previous Version | Text Only | Print | Product List | Glossary On
Versions: 1 2 3 4 5 6 7 8 9 10 11 12 13 14 15 16 17 18 19 20 21 22 23 24 25 26 27 28 29 30 31 32 33 34 35 36 37 38 39 40 41 42 43 44 45 46 47 48 49 50
000
ASUS43 KOAX 030202
RWRNE

WEATHER ROUNDUP FOR NEBRASKA
NATIONAL WEATHER SERVICE OMAHA NE
900 PM CDT TUE JUN 02 2015

NOTES: SATELLITE DATA IS BEING USED TO AUGMENT CLOUD COVER ABOVE
       12000 FEET.
       "FAIR" INDICATES FEW OR NO CLOUDS BELOW 12,000 FEET WITH NO
       SIGNIFICANT WEATHER AND/OR OBSTRUCTIONS TO VISIBILITY.

  * THESE STATIONS DO NOT REPORT WEATHER SUCH AS RAIN...SNOW OR FOG.

NEZ001>004-019>022-054>056-030300-
NEBRASKA PANHANDLE

CITY           SKY/WX    TMP DP  RH WIND       PRES   REMARKS
SCOTTSBLUFF    PTCLDY    69  49  48 NE14      29.83R
ALLIANCE       CLOUDY    66  52  60 NE14      29.82F
CHADRON        CLOUDY    64  55  72 NE6       29.80R
KIMBALL          N/A    N/A N/A N/A MISG        N/A
SIDNEY         PTCLDY    73  64  73 SE10      29.82S
$$

NEZ057>060-069>072-079>082-030300-
SOUTHWEST NEBRASKA

CITY           SKY/WX    TMP DP  RH WIND       PRES   REMARKS
NORTH PLATTE   PTCLDY    77  66  68 SE13      29.77F
IMPERIAL       CLEAR     75  64  68 SE9       29.78S
LEXINGTON      CLEAR     78  66  66 SE9       29.79F
MCCOOK         CLEAR     80  65  59 SE10      29.77S
$$

NEZ005>010-023>029-035>040-094-030300-
NORTH CENTRAL NEBRASKA

CITY           SKY/WX    TMP DP  RH WIND       PRES   REMARKS
VALENTINE      CLOUDY    78  66  66 SE10      29.76F
AINSWORTH      CLOUDY    73  66  77 S12       29.79F
BROKEN BOW     PTCLDY    77  66  68 SE9       29.80F
O`NEILL        PTCLDY    72  65  77 S3        29.82F
ORD            PTCLDY    78  63  59 S6        29.80S
$$

NEZ041-046>049-061>064-073>077-083>087-030300-
SOUTH CENTRAL NEBRASKA

CITY           SKY/WX    TMP DP  RH WIND       PRES   REMARKS
GRAND ISLAND   PTCLDY    79  65  62 SE14      29.83R
HASTINGS       PTCLDY    79  65  62 SE12      29.82S
KEARNEY *      CLEAR     77  63  61 SE10      29.81S
$$

NEZ011>018-030>034-042>045-030300-
NORTHEAST NEBRASKA

CITY           SKY/WX    TMP DP  RH WIND       PRES   REMARKS
NORFOLK        CLEAR     72  62  71 SE13G23   29.85R
COLUMBUS *     CLEAR     73  63  68 SE12      29.87R
FREMONT        CLEAR     69  60  71 SE16G22   29.89R
TEKAMAH        CLEAR     71  59  65 SE18      29.89R
$$

NEZ050>053-065>068-078-088>093-030300-
SOUTHEAST NEBRASKA

CITY           SKY/WX    TMP DP  RH WIND       PRES   REMARKS
LINCOLN        CLEAR     71  62  73 SE16G24   29.88R
OMAHA EPPLEY   PTCLDY    69  58  67 SE16G24   29.90F
FALLS CITY     MOCLDY    68  59  73 E12       29.93R
NEBRASKA CITY  PTCLDY    64  60  86 SE13      29.92F
PLATTSMOUTH    PTCLDY    66  58  74 SE14G21   29.91S
$$

NEZ044-045-051>053-067-030300-
OMAHA AREA

CITY           SKY/WX    TMP DP  RH WIND       PRES   REMARKS
OMAHA EPPLEY   PTCLDY    69  58  67 SE16G24   29.90F
FREMONT        CLEAR     69  60  71 SE16G22   29.89R
OFFUTT AFB     PTCLDY    67  59  73 SE13      29.90S
PLATTSMOUTH    PTCLDY    66  58  74 SE14G21   29.91S
$$


USA.gov is the U.S. government's official web portal to all federal, state and local government web resources and services.